カタログに戻る

STARLINK-31658

運用中通信VLEO
NORAD 59513·PAYLOAD·🇺🇸 United States

打ち上げ Apr 17, 2024 から Cape Canaveral Space Force Station

Loading…

次のパス (今後24時間)

TLE

最新Source: CelesTrak SupGP

元期: Sep 14, 2026, 20:51 UTC

1 59513C 24073C   26257.86923611 -.00013535  00000+0 -49015-3 0  2574
2 59513  43.0029 289.3625 0001455 294.1174  33.8859 15.27590520    14

AllMySatでSTARLINK-31658をリアルタイム追跡

Download on the App Store